date,time,water_lv
2023-11-01,00:00:00,5.838
2023-11-01,00:10:00,5.844
2023-11-01,00:20:00,5.841
2023-11-01,00:30:00,5.838
2023-11-01,00:40:00,5.838
2023-11-01,00:50:00,5.841
2023-11-01,01:00:00,5.832
2023-11-01,01:10:00,5.845
2023-11-01,01:20:00,5.844
2023-11-01,01:30:00,5.839
2023-11-01,01:40:00,5.841
2023-11-01,01:50:00,5.841
2023-11-01,02:00:00,5.843
2023-11-01,02:10:00,5.836
2023-11-01,02:20:00,5.845
2023-11-01,02:30:00,5.845
2023-11-01,02:40:00,5.838
2023-11-01,02:50:00,5.843
2023-11-01,03:00:00,5.835
2023-11-01,03:10:00,5.828
2023-11-01,03:20:00,5.842
2023-11-01,03:30:00,5.85
2023-11-01,03:40:00,5.838
2023-11-01,03:50:00,5.832
2023-11-01,04:00:00,5.83
2023-11-01,04:10:00,5.838
2023-11-01,04:20:00,5.843
2023-11-01,04:30:00,5.829
2023-11-01,04:40:00,5.826
2023-11-01,04:50:00,5.823
2023-11-01,05:00:00,5.831
2023-11-01,05:10:00,5.822
2023-11-01,05:20:00,5.831
2023-11-01,05:30:00,5.834
2023-11-01,05:40:00,5.829
2023-11-01,05:50:00,5.823
2023-11-01,06:00:00,5.821
2023-11-01,06:10:00,5.822
2023-11-01,06:20:00,5.828
2023-11-01,06:30:00,5.835
2023-11-01,06:40:00,5.824
2023-11-01,06:50:00,5.826
2023-11-01,07:00:00,5.81
2023-11-01,07:10:00,5.825
2023-11-01,07:20:00,5.817
2023-11-01,07:30:00,5.81
2023-11-01,07:40:00,5.819
2023-11-01,07:50:00,5.814
2023-11-01,08:00:00,5.816
2023-11-01,08:10:00,5.818
2023-11-01,08:20:00,5.798
2023-11-01,08:30:00,5.798
2023-11-01,08:40:00,5.81
2023-11-01,08:50:00,5.789
2023-11-01,09:00:00,5.79
2023-11-01,09:10:00,5.807
2023-11-01,09:20:00,5.792
2023-11-01,09:30:00,5.795
2023-11-01,09:40:00,5.796
2023-11-01,09:50:00,5.785
2023-11-01,10:00:00,5.803
2023-11-01,10:10:00,5.789
2023-11-01,10:20:00,5.794
2023-11-01,10:30:00,5.808
2023-11-01,10:40:00,5.796
2023-11-01,10:50:00,5.789
2023-11-01,11:00:00,5.789
2023-11-01,11:10:00,5.801
2023-11-01,11:20:00,5.796
2023-11-01,11:30:00,5.803
2023-11-01,11:40:00,5.797
2023-11-01,11:50:00,5.803
2023-11-01,12:00:00,5.791
2023-11-01,12:10:00,5.782
2023-11-01,12:20:00,5.8
2023-11-01,12:30:00,5.802
2023-11-01,12:40:00,5.796
2023-11-01,12:50:00,5.791
2023-11-01,13:00:00,5.804
2023-11-01,13:10:00,5.795
2023-11-01,13:20:00,5.812
2023-11-01,13:30:00,5.807
2023-11-01,13:40:00,5.802
2023-11-01,13:50:00,5.824
2023-11-01,14:00:00,5.81
2023-11-01,14:10:00,5.818
2023-11-01,14:20:00,5.817
2023-11-01,14:30:00,5.824
2023-11-01,14:40:00,5.83
2023-11-01,14:50:00,5.829
2023-11-01,15:00:00,5.836
2023-11-01,15:10:00,5.838
2023-11-01,15:20:00,5.828
2023-11-01,15:30:00,5.835
2023-11-01,15:40:00,5.839
2023-11-01,15:50:00,5.829
2023-11-01,16:00:00,5.843
2023-11-01,16:10:00,5.837
2023-11-01,16:20:00,5.835
2023-11-01,16:30:00,5.837
2023-11-01,16:40:00,5.842
2023-11-01,16:50:00,5.85
2023-11-01,17:00:00,5.85
2023-11-01,17:10:00,5.835
2023-11-01,17:20:00,5.855
2023-11-01,17:30:00,5.852
2023-11-01,17:40:00,5.858
2023-11-01,17:50:00,5.852
2023-11-01,18:00:00,5.855
2023-11-01,18:10:00,5.85
2023-11-01,18:20:00,5.855
2023-11-01,18:30:00,5.852
2023-11-01,18:40:00,5.86
2023-11-01,18:50:00,5.858
2023-11-01,19:00:00,5.858
2023-11-01,19:10:00,5.859
2023-11-01,19:20:00,5.851
2023-11-01,19:30:00,5.862
2023-11-01,19:40:00,5.851
2023-11-01,19:50:00,5.848
2023-11-01,20:00:00,5.858
2023-11-01,20:10:00,5.849
2023-11-01,20:20:00,5.853
2023-11-01,20:30:00,5.853
2023-11-01,20:40:00,5.865
2023-11-01,20:50:00,5.857
2023-11-01,21:00:00,5.852
2023-11-01,21:10:00,5.865
2023-11-01,21:20:00,5.857
2023-11-01,21:30:00,5.853
2023-11-01,21:40:00,5.863
2023-11-01,21:50:00,5.865
2023-11-01,22:00:00,5.857
2023-11-01,22:10:00,5.859
2023-11-01,22:20:00,5.863
2023-11-01,22:30:00,5.864
2023-11-01,22:40:00,5.862
2023-11-01,22:50:00,5.862
2023-11-01,23:00:00,5.852
2023-11-01,23:10:00,5.867
2023-11-01,23:20:00,5.864
2023-11-01,23:30:00,5.853
2023-11-01,23:40:00,5.855
2023-11-01,23:50:00,5.855
2023-11-02,00:00:00,5.855
2023-11-02,00:10:00,5.864
2023-11-02,00:20:00,5.865
2023-11-02,00:30:00,5.867
2023-11-02,00:40:00,5.863
2023-11-02,00:50:00,5.853
2023-11-02,01:00:00,5.871
2023-11-02,01:10:00,5.855
2023-11-02,01:20:00,5.857
2023-11-02,01:30:00,5.865
2023-11-02,01:40:00,5.866
2023-11-02,01:50:00,5.86
2023-11-02,02:00:00,5.867
2023-11-02,02:10:00,5.867
2023-11-02,02:20:00,5.857
2023-11-02,02:30:00,5.866
2023-11-02,02:40:00,5.869
2023-11-02,02:50:00,5.858
2023-11-02,03:00:00,5.863
2023-11-02,03:10:00,5.869
2023-11-02,03:20:00,5.869
2023-11-02,03:30:00,5.859
2023-11-02,03:40:00,5.862
2023-11-02,03:50:00,5.869
2023-11-02,04:00:00,5.87
2023-11-02,04:10:00,5.872
2023-11-02,04:20:00,5.87
2023-11-02,04:30:00,5.87
2023-11-02,04:40:00,5.869
2023-11-02,04:50:00,5.87
2023-11-02,05:00:00,5.867
2023-11-02,05:10:00,5.872
2023-11-02,05:20:00,5.863
2023-11-02,05:30:00,5.86
2023-11-02,05:40:00,5.856
2023-11-02,05:50:00,5.864
2023-11-02,06:00:00,5.863
2023-11-02,06:10:00,5.865
2023-11-02,06:20:00,5.87
2023-11-02,06:30:00,5.864
2023-11-02,06:40:00,5.858
2023-11-02,06:50:00,5.869
2023-11-02,07:00:00,5.865
2023-11-02,07:10:00,5.86
2023-11-02,07:20:00,5.852
2023-11-02,07:30:00,5.862
2023-11-02,07:40:00,5.856
2023-11-02,07:50:00,5.853
2023-11-02,08:00:00,5.862
2023-11-02,08:10:00,5.859
2023-11-02,08:20:00,5.862
2023-11-02,08:30:00,5.857
2023-11-02,08:40:00,5.844
2023-11-02,08:50:00,5.846
2023-11-02,09:00:00,5.853
2023-11-02,09:10:00,5.851
2023-11-02,09:20:00,5.851
2023-11-02,09:30:00,5.845
2023-11-02,09:40:00,5.843
2023-11-02,09:50:00,5.837
2023-11-02,10:00:00,5.848
2023-11-02,10:10:00,5.841
2023-11-02,10:20:00,5.843
2023-11-02,10:30:00,5.841
2023-11-02,10:40:00,5.841
2023-11-02,10:50:00,5.829
2023-11-02,11:00:00,5.844
2023-11-02,11:10:00,5.839
2023-11-02,11:20:00,5.841
2023-11-02,11:30:00,5.843
2023-11-02,11:40:00,5.845
2023-11-02,11:50:00,5.849
2023-11-02,12:00:00,5.848
2023-11-02,12:10:00,5.848
2023-11-02,12:20:00,5.834
2023-11-02,12:30:00,5.834
2023-11-02,12:40:00,5.843
2023-11-02,12:50:00,5.851
2023-11-02,13:00:00,5.853
2023-11-02,13:10:00,5.848
2023-11-02,13:20:00,5.853
2023-11-02,13:30:00,5.859
2023-11-02,13:40:00,5.851
2023-11-02,13:50:00,5.862
2023-11-02,14:00:00,5.872
2023-11-02,14:10:00,5.844
2023-11-02,14:20:00,5.852
2023-11-02,14:30:00,5.87
2023-11-02,14:40:00,5.856
2023-11-02,14:50:00,5.871
2023-11-02,15:00:00,5.879
2023-11-02,15:10:00,5.882
2023-11-02,15:20:00,5.883
2023-11-02,15:30:00,5.88
2023-11-02,15:40:00,5.896
2023-11-02,15:50:00,5.885
2023-11-02,16:00:00,5.893
2023-11-02,16:10:00,5.909
2023-11-02,16:20:00,5.901
2023-11-02,16:30:00,5.909
2023-11-02,16:40:00,5.899
2023-11-02,16:50:00,5.905
2023-11-02,17:00:00,5.91
2023-11-02,17:10:00,5.916
2023-11-02,17:20:00,5.898
2023-11-02,17:30:00,5.909
2023-11-02,17:40:00,5.918
2023-11-02,17:50:00,5.916
2023-11-02,18:00:00,5.909
2023-11-02,18:10:00,5.907
2023-11-02,18:20:00,5.91
2023-11-02,18:30:00,5.927
2023-11-02,18:40:00,5.924
2023-11-02,18:50:00,5.917
2023-11-02,19:00:00,5.931
2023-11-02,19:10:00,5.923
2023-11-02,19:20:00,5.932
2023-11-02,19:30:00,5.928
2023-11-02,19:40:00,5.927
2023-11-02,19:50:00,5.938
2023-11-02,20:00:00,5.917
2023-11-02,20:10:00,5.944
2023-11-02,20:20:00,5.925
2023-11-02,20:30:00,5.94
2023-11-02,20:40:00,5.938
2023-11-02,20:50:00,5.925
2023-11-02,21:00:00,5.941
2023-11-02,21:10:00,5.938
2023-11-02,21:20:00,5.947
2023-11-02,21:30:00,5.946
2023-11-02,21:40:00,5.945
2023-11-02,21:50:00,5.946
2023-11-02,22:00:00,5.944
2023-11-02,22:10:00,5.938
2023-11-02,22:20:00,5.948
2023-11-02,22:30:00,5.947
2023-11-02,22:40:00,5.95
2023-11-02,22:50:00,5.952
2023-11-02,23:00:00,5.955
2023-11-02,23:10:00,5.95
2023-11-02,23:20:00,5.939
2023-11-02,23:30:00,5.95
2023-11-02,23:40:00,5.955
2023-11-02,23:50:00,5.951
2023-11-03,00:00:00,5.952
2023-11-03,00:10:00,5.947
2023-11-03,00:20:00,5.955
2023-11-03,00:30:00,5.951
2023-11-03,00:40:00,5.962
2023-11-03,00:50:00,5.965
2023-11-03,01:00:00,5.952
2023-11-03,01:10:00,5.967
2023-11-03,01:20:00,5.96
2023-11-03,01:30:00,5.965
2023-11-03,01:40:00,5.968
2023-11-03,01:50:00,5.966
2023-11-03,02:00:00,5.964
2023-11-03,02:10:00,5.972
2023-11-03,02:20:00,5.98
2023-11-03,02:30:00,5.966
2023-11-03,02:40:00,5.964
2023-11-03,02:50:00,5.966
2023-11-03,03:00:00,5.971
2023-11-03,03:10:00,5.972
2023-11-03,03:20:00,5.974
2023-11-03,03:30:00,5.986
2023-11-03,03:40:00,5.975
2023-11-03,03:50:00,5.971
2023-11-03,04:00:00,5.965
2023-11-03,04:10:00,5.981
2023-11-03,04:20:00,5.978
2023-11-03,04:30:00,5.972
2023-11-03,04:40:00,5.986
2023-11-03,04:50:00,5.973
2023-11-03,05:00:00,5.985
2023-11-03,05:10:00,5.986
2023-11-03,05:20:00,5.979
2023-11-03,05:30:00,5.985
2023-11-03,05:40:00,5.986
2023-11-03,05:50:00,5.984
2023-11-03,06:00:00,5.98
2023-11-03,06:10:00,5.979
2023-11-03,06:20:00,5.986
2023-11-03,06:30:00,5.976
2023-11-03,06:40:00,5.987
2023-11-03,06:50:00,5.986
2023-11-03,07:00:00,5.988
2023-11-03,07:10:00,5.987
2023-11-03,07:20:00,5.982
2023-11-03,07:30:00,5.987
2023-11-03,07:40:00,5.992
2023-11-03,07:50:00,5.975
2023-11-03,08:00:00,5.986
2023-11-03,08:10:00,5.98
2023-11-03,08:20:00,5.989
2023-11-03,08:30:00,5.986
2023-11-03,08:40:00,5.984
2023-11-03,08:50:00,5.984
2023-11-03,09:00:00,5.989
2023-11-03,09:10:00,5.982
2023-11-03,09:20:00,5.981
2023-11-03,09:30:00,5.976
2023-11-03,09:40:00,5.975
2023-11-03,09:50:00,5.974
2023-11-03,10:00:00,6.001
2023-11-03,10:10:00,6.02
2023-11-03,10:20:00,6.029
2023-11-03,10:30:00,6.043
2023-11-03,10:40:00,6.039
2023-11-03,10:50:00,6.043
2023-11-03,11:00:00,6.053
2023-11-03,11:10:00,6.057
2023-11-03,11:20:00,6.063
2023-11-03,11:30:00,6.068
2023-11-03,11:40:00,6.07
2023-11-03,11:50:00,6.071
2023-11-03,12:00:00,6.082
2023-11-03,12:10:00,6.087
2023-11-03,12:20:00,6.08
2023-11-03,12:30:00,6.095
2023-11-03,12:40:00,6.089
2023-11-03,12:50:00,6.082
2023-11-03,13:00:00,6.098
2023-11-03,13:10:00,6.107
2023-11-03,13:20:00,6.096
2023-11-03,13:30:00,6.1
2023-11-03,13:40:00,6.11
2023-11-03,13:50:00,6.1
2023-11-03,14:00:00,6.11
2023-11-03,14:10:00,6.11
2023-11-03,14:20:00,6.115
2023-11-03,14:30:00,6.126
2023-11-03,14:40:00,6.121
2023-11-03,14:50:00,6.117
2023-11-03,15:00:00,6.108
2023-11-03,15:10:00,6.123
2023-11-03,15:20:00,6.128
2023-11-03,15:30:00,6.134
2023-11-03,15:40:00,6.121
2023-11-03,15:50:00,6.143
2023-11-03,16:00:00,6.132
2023-11-03,16:10:00,6.139
2023-11-03,16:20:00,6.149
2023-11-03,16:30:00,6.146
2023-11-03,16:40:00,6.134
2023-11-03,16:50:00,6.159
2023-11-03,17:00:00,6.15
2023-11-03,17:10:00,6.157
2023-11-03,17:20:00,6.169
2023-11-03,17:30:00,6.158
2023-11-03,17:40:00,6.159
2023-11-03,17:50:00,6.15
2023-11-03,18:00:00,6.164
2023-11-03,18:10:00,6.175
2023-11-03,18:20:00,6.17
2023-11-03,18:30:00,6.166
2023-11-03,18:40:00,6.172
2023-11-03,18:50:00,6.176
2023-11-03,19:00:00,6.179
2023-11-03,19:10:00,6.175
2023-11-03,19:20:00,6.189
2023-11-03,19:30:00,6.185
2023-11-03,19:40:00,6.176
2023-11-03,19:50:00,6.183
2023-11-03,20:00:00,6.194
2023-11-03,20:10:00,6.187
2023-11-03,20:20:00,6.187
2023-11-03,20:30:00,6.19
2023-11-03,20:40:00,6.2
2023-11-03,20:50:00,6.201
2023-11-03,21:00:00,6.189
2023-11-03,21:10:00,6.184
2023-11-03,21:20:00,6.198
2023-11-03,21:30:00,6.209
2023-11-03,21:40:00,6.197
2023-11-03,21:50:00,6.196
2023-11-03,22:00:00,6.209
2023-11-03,22:10:00,6.201
2023-11-03,22:20:00,6.205
2023-11-03,22:30:00,6.209
2023-11-03,22:40:00,6.201
2023-11-03,22:50:00,6.207
2023-11-03,23:00:00,6.206
2023-11-03,23:10:00,6.211
2023-11-03,23:20:00,6.214
2023-11-03,23:30:00,6.209
2023-11-03,23:40:00,6.206
2023-11-03,23:50:00,6.22
2023-11-04,00:00:00,6.213
2023-11-04,00:10:00,6.216
2023-11-04,00:20:00,6.214
2023-11-04,00:30:00,6.209
2023-11-04,00:40:00,6.219
2023-11-04,00:50:00,6.212
2023-11-04,01:00:00,6.221
2023-11-04,01:10:00,6.212
2023-11-04,01:20:00,6.22
2023-11-04,01:30:00,6.228
2023-11-04,01:40:00,6.214
2023-11-04,01:50:00,6.212
2023-11-04,02:00:00,6.218
2023-11-04,02:10:00,6.225
2023-11-04,02:20:00,6.22
2023-11-04,02:30:00,6.209
2023-11-04,02:40:00,6.23
2023-11-04,02:50:00,6.225
2023-11-04,03:00:00,6.228
2023-11-04,03:10:00,6.22
2023-11-04,03:20:00,6.223
2023-11-04,03:30:00,6.217
2023-11-04,03:40:00,6.223
2023-11-04,03:50:00,6.237
2023-11-04,04:00:00,6.221
2023-11-04,04:10:00,6.239
2023-11-04,04:20:00,6.228
2023-11-04,04:30:00,6.22
2023-11-04,04:40:00,6.224
2023-11-04,04:50:00,6.232
2023-11-04,05:00:00,6.23
2023-11-04,05:10:00,6.232
2023-11-04,05:20:00,6.225
2023-11-04,05:30:00,6.219
2023-11-04,05:40:00,6.232
2023-11-04,05:50:00,6.237
2023-11-04,06:00:00,6.223
2023-11-04,06:10:00,6.216
2023-11-04,06:20:00,6.221
2023-11-04,06:30:00,6.231
2023-11-04,06:40:00,6.22
2023-11-04,06:50:00,6.231
2023-11-04,07:00:00,6.227
2023-11-04,07:10:00,6.232
2023-11-04,07:20:00,6.234
2023-11-04,07:30:00,6.22
2023-11-04,07:40:00,6.226
2023-11-04,07:50:00,6.219
2023-11-04,08:00:00,6.225
2023-11-04,08:10:00,6.223
2023-11-04,08:20:00,6.23
2023-11-04,08:30:00,6.225
2023-11-04,08:40:00,6.211
2023-11-04,08:50:00,6.226
2023-11-04,09:00:00,6.22
2023-11-04,09:10:00,6.221
2023-11-04,09:20:00,6.2
2023-11-04,09:30:00,6.21
2023-11-04,09:40:00,6.203
2023-11-04,09:50:00,6.204
2023-11-04,10:00:00,6.211
2023-11-04,10:10:00,6.21
2023-11-04,10:20:00,6.22
2023-11-04,10:30:00,6.217
2023-11-04,10:40:00,6.212
2023-11-04,10:50:00,6.206
2023-11-04,11:00:00,6.213
2023-11-04,11:10:00,6.212
2023-11-04,11:20:00,6.207
2023-11-04,11:30:00,6.206
2023-11-04,11:40:00,6.21
2023-11-04,11:50:00,6.209
2023-11-04,12:00:00,6.214
2023-11-04,12:10:00,6.214
2023-11-04,12:20:00,6.211
2023-11-04,12:30:00,6.211
2023-11-04,12:40:00,6.206
2023-11-04,12:50:00,6.211
2023-11-04,13:00:00,6.203
2023-11-04,13:10:00,6.203
2023-11-04,13:20:00,6.216
2023-11-04,13:30:00,6.204
2023-11-04,13:40:00,6.206
2023-11-04,13:50:00,6.211
2023-11-04,14:00:00,6.198
2023-11-04,14:10:00,6.193
2023-11-04,14:20:00,6.209
2023-11-04,14:30:00,6.198
2023-11-04,14:40:00,6.194
2023-11-04,14:50:00,6.199
2023-11-04,15:00:00,6.209
2023-11-04,15:10:00,6.204
2023-11-04,15:20:00,6.206
2023-11-04,15:30:00,6.212
2023-11-04,15:40:00,6.206
2023-11-04,15:50:00,6.189
2023-11-04,16:00:00,6.206
2023-11-04,16:10:00,6.223
2023-11-04,16:20:00,6.205
2023-11-04,16:30:00,6.21
2023-11-04,16:40:00,6.206
2023-11-04,16:50:00,6.22
2023-11-04,17:00:00,6.218
2023-11-04,17:10:00,6.219
2023-11-04,17:20:00,6.214
2023-11-04,17:30:00,6.213
2023-11-04,17:40:00,6.23
2023-11-04,17:50:00,6.213
2023-11-04,18:00:00,6.23
2023-11-04,18:10:00,6.218
2023-11-04,18:20:00,6.226
2023-11-04,18:30:00,6.232
2023-11-04,18:40:00,6.216
2023-11-04,18:50:00,6.232
2023-11-04,19:00:00,6.23
2023-11-04,19:10:00,6.237
2023-11-04,19:20:00,6.239
2023-11-04,19:30:00,6.237
2023-11-04,19:40:00,6.23
2023-11-04,19:50:00,6.246
2023-11-04,20:00:00,6.232
2023-11-04,20:10:00,6.24
2023-11-04,20:20:00,6.24
2023-11-04,20:30:00,6.241
2023-11-04,20:40:00,6.233
2023-11-04,20:50:00,6.237
2023-11-04,21:00:00,6.245
2023-11-04,21:10:00,6.238
2023-11-04,21:20:00,6.241
2023-11-04,21:30:00,6.244
2023-11-04,21:40:00,6.238
2023-11-04,21:50:00,6.237
2023-11-04,22:00:00,6.253
2023-11-04,22:10:00,6.253
2023-11-04,22:20:00,6.244
2023-11-04,22:30:00,6.244
2023-11-04,22:40:00,6.239
2023-11-04,22:50:00,6.242
2023-11-04,23:00:00,6.244
2023-11-04,23:10:00,6.245
2023-11-04,23:20:00,6.247
2023-11-04,23:30:00,6.247
2023-11-04,23:40:00,6.241
2023-11-04,23:50:00,6.245
2023-11-05,00:00:00,6.245
2023-11-05,00:10:00,6.247
2023-11-05,00:20:00,6.245
2023-11-05,00:30:00,6.247
2023-11-05,00:40:00,6.245
2023-11-05,00:50:00,6.254
2023-11-05,01:00:00,6.237
2023-11-05,01:10:00,6.245
2023-11-05,01:20:00,6.253
2023-11-05,01:30:00,6.257
2023-11-05,01:40:00,6.254
2023-11-05,01:50:00,6.248
2023-11-05,02:00:00,6.253
2023-11-05,02:10:00,6.248
2023-11-05,02:20:00,6.245
2023-11-05,02:30:00,6.248
2023-11-05,02:40:00,6.254
2023-11-05,02:50:00,6.252
2023-11-05,03:00:00,6.242
2023-11-05,03:10:00,6.245
2023-11-05,03:20:00,6.255
2023-11-05,03:30:00,6.25
2023-11-05,03:40:00,6.241
2023-11-05,03:50:00,6.244
2023-11-05,04:00:00,6.246
2023-11-05,04:10:00,6.251
2023-11-05,04:20:00,6.242
2023-11-05,04:30:00,6.251
2023-11-05,04:40:00,6.246
2023-11-05,04:50:00,6.242
2023-11-05,05:00:00,6.235
2023-11-05,05:10:00,6.24
2023-11-05,05:20:00,6.247
2023-11-05,05:30:00,6.251
2023-11-05,05:40:00,6.241
2023-11-05,05:50:00,6.234
2023-11-05,06:00:00,6.237
2023-11-05,06:10:00,6.244
2023-11-05,06:20:00,6.246
2023-11-05,06:30:00,6.242
2023-11-05,06:40:00,6.228
2023-11-05,06:50:00,6.231
2023-11-05,07:00:00,6.235
2023-11-05,07:10:00,6.235
2023-11-05,07:20:00,6.237
2023-11-05,07:30:00,6.238
2023-11-05,07:40:00,6.235
2023-11-05,07:50:00,6.227
2023-11-05,08:00:00,6.23
2023-11-05,08:10:00,6.227
2023-11-05,08:20:00,6.216
2023-11-05,08:30:00,6.218
2023-11-05,08:40:00,6.217
2023-11-05,08:50:00,6.221
2023-11-05,09:00:00,6.212
2023-11-05,09:10:00,6.224
2023-11-05,09:20:00,6.221
2023-11-05,09:30:00,6.22
2023-11-05,09:40:00,6.213
2023-11-05,09:50:00,6.213
2023-11-05,10:00:00,6.217
2023-11-05,10:10:00,6.218
2023-11-05,10:20:00,6.203
2023-11-05,10:30:00,6.213
2023-11-05,10:40:00,6.2
2023-11-05,10:50:00,6.201
2023-11-05,11:00:00,6.206
2023-11-05,11:10:00,6.19
2023-11-05,11:20:00,6.201
2023-11-05,11:30:00,6.189
2023-11-05,11:40:00,6.192
2023-11-05,11:50:00,6.186
2023-11-05,12:00:00,6.204
2023-11-05,12:10:00,6.196
2023-11-05,12:20:00,6.191
2023-11-05,12:30:00,6.184
2023-11-05,12:40:00,6.19
2023-11-05,12:50:00,6.183
2023-11-05,13:00:00,6.192
2023-11-05,13:10:00,6.193
2023-11-05,13:20:00,6.198
2023-11-05,13:30:00,6.191
2023-11-05,13:40:00,6.185
2023-11-05,13:50:00,6.187
2023-11-05,14:00:00,6.182
2023-11-05,14:10:00,6.193
2023-11-05,14:20:00,6.194
2023-11-05,14:30:00,6.191
2023-11-05,14:40:00,6.171
2023-11-05,14:50:00,6.173
2023-11-05,15:00:00,6.176
2023-11-05,15:10:00,6.182
2023-11-05,15:20:00,6.19
2023-11-05,15:30:00,6.187
2023-11-05,15:40:00,6.172
2023-11-05,15:50:00,6.179
2023-11-05,16:00:00,6.169
2023-11-05,16:10:00,6.186
2023-11-05,16:20:00,6.178
2023-11-05,16:30:00,6.182
2023-11-05,16:40:00,6.176
2023-11-05,16:50:00,6.178
2023-11-05,17:00:00,6.19
2023-11-05,17:10:00,6.177
2023-11-05,17:20:00,6.16
2023-11-05,17:30:00,6.179
2023-11-05,17:40:00,6.176
2023-11-05,17:50:00,6.176
2023-11-05,18:00:00,6.18
2023-11-05,18:10:00,6.191
2023-11-05,18:20:00,6.177
2023-11-05,18:30:00,6.192
2023-11-05,18:40:00,6.184
2023-11-05,18:50:00,6.18
2023-11-05,19:00:00,6.189
2023-11-05,19:10:00,6.18
2023-11-05,19:20:00,6.178
2023-11-05,19:30:00,6.19
2023-11-05,19:40:00,6.176
2023-11-05,19:50:00,6.183
2023-11-05,20:00:00,6.189
2023-11-05,20:10:00,6.189
2023-11-05,20:20:00,6.178
2023-11-05,20:30:00,6.172
2023-11-05,20:40:00,6.186
2023-11-05,20:50:00,6.182
2023-11-05,21:00:00,6.182
2023-11-05,21:10:00,6.196
2023-11-05,21:20:00,6.186
2023-11-05,21:30:00,6.18
2023-11-05,21:40:00,6.191
2023-11-05,21:50:00,6.185
2023-11-05,22:00:00,6.191
2023-11-05,22:10:00,6.19
2023-11-05,22:20:00,6.189
2023-11-05,22:30:00,6.183
2023-11-05,22:40:00,6.177
2023-11-05,22:50:00,6.191
2023-11-05,23:00:00,6.185
2023-11-05,23:10:00,6.185
2023-11-05,23:20:00,6.191
2023-11-05,23:30:00,6.189
2023-11-05,23:40:00,6.182
2023-11-05,23:50:00,6.193
2023-11-06,00:00:00,6.183
2023-11-06,00:10:00,6.19
2023-11-06,00:20:00,6.176
2023-11-06,00:30:00,6.189
2023-11-06,00:40:00,6.177
2023-11-06,00:50:00,6.176
2023-11-06,01:00:00,6.171
2023-11-06,01:10:00,6.18
2023-11-06,01:20:00,6.178
2023-11-06,01:30:00,6.177
2023-11-06,01:40:00,6.182
2023-11-06,01:50:00,6.175
2023-11-06,02:00:00,6.187
2023-11-06,02:10:00,6.184
2023-11-06,02:20:00,6.182
2023-11-06,02:30:00,6.187
2023-11-06,02:40:00,6.176
2023-11-06,02:50:00,6.184
2023-11-06,03:00:00,6.183
2023-11-06,03:10:00,6.164
2023-11-06,03:20:00,6.18
2023-11-06,03:30:00,6.17
2023-11-06,03:40:00,6.179
2023-11-06,03:50:00,6.175
2023-11-06,04:00:00,6.17
2023-11-06,04:10:00,6.182
2023-11-06,04:20:00,6.173
2023-11-06,04:30:00,6.169
2023-11-06,04:40:00,6.169
2023-11-06,04:50:00,6.157
2023-11-06,05:00:00,6.167
2023-11-06,05:10:00,6.156
2023-11-06,05:20:00,6.172
2023-11-06,05:30:00,6.171
2023-11-06,05:40:00,6.162
2023-11-06,05:50:00,6.153
2023-11-06,06:00:00,6.163
2023-11-06,06:10:00,6.172
2023-11-06,06:20:00,6.165
2023-11-06,06:30:00,6.164
2023-11-06,06:40:00,6.158
2023-11-06,06:50:00,6.159
2023-11-06,07:00:00,6.16
2023-11-06,07:10:00,6.151
2023-11-06,07:20:00,6.146
2023-11-06,07:30:00,6.139
2023-11-06,07:40:00,6.138
2023-11-06,07:50:00,6.139
2023-11-06,08:00:00,6.143
2023-11-06,08:10:00,6.155
2023-11-06,08:20:00,6.142
2023-11-06,08:30:00,6.145
2023-11-06,08:40:00,6.137
2023-11-06,08:50:00,6.148
2023-11-06,09:00:00,6.137
2023-11-06,09:10:00,6.136
2023-11-06,09:20:00,6.13
2023-11-06,09:30:00,6.138
2023-11-06,09:40:00,6.141
2023-11-06,09:50:00,6.132
2023-11-06,10:00:00,6.121
2023-11-06,10:10:00,6.134
2023-11-06,10:20:00,6.131
2023-11-06,10:30:00,6.117
2023-11-06,10:40:00,6.129
2023-11-06,10:50:00,6.119
2023-11-06,11:00:00,6.125
2023-11-06,11:10:00,6.126
2023-11-06,11:20:00,6.119
2023-11-06,11:30:00,6.116
2023-11-06,11:40:00,6.114
2023-11-06,11:50:00,6.109
2023-11-06,12:00:00,6.118
2023-11-06,12:10:00,6.111
2023-11-06,12:20:00,6.103
2023-11-06,12:30:00,6.116
2023-11-06,12:40:00,6.094
2023-11-06,12:50:00,6.101
2023-11-06,13:00:00,6.111
2023-11-06,13:10:00,6.108
2023-11-06,13:20:00,6.108
2023-11-06,13:30:00,6.102
2023-11-06,13:40:00,6.095
2023-11-06,13:50:00,6.102
2023-11-06,14:00:00,6.1
2023-11-06,14:10:00,6.103
2023-11-06,14:20:00,6.097
2023-11-06,14:30:00,6.08
2023-11-06,14:40:00,6.051
2023-11-06,14:50:00,6.051
2023-11-06,15:00:00,6.039
2023-11-06,15:10:00,6.04
2023-11-06,15:20:00,6.037
2023-11-06,15:30:00,6.021
2023-11-06,15:40:00,6.029
2023-11-06,15:50:00,6.023
2023-11-06,16:00:00,6.015
2023-11-06,16:10:00,5.998
2023-11-06,16:20:00,6.013
2023-11-06,16:30:00,5.993
2023-11-06,16:40:00,6.009
2023-11-06,16:50:00,6
2023-11-06,17:00:00,5.995
2023-11-06,17:10:00,5.993
2023-11-06,17:20:00,5.993
2023-11-06,17:30:00,5.979
2023-11-06,17:40:00,5.987
2023-11-06,17:50:00,5.992
2023-11-06,18:00:00,5.991
2023-11-06,18:10:00,5.994
2023-11-06,18:20:00,5.993
2023-11-06,18:30:00,5.992
2023-11-06,18:40:00,5.975
2023-11-06,18:50:00,5.982
2023-11-06,19:00:00,5.972
2023-11-06,19:10:00,5.968
2023-11-06,19:20:00,5.968
2023-11-06,19:30:00,5.987
2023-11-06,19:40:00,5.985
2023-11-06,19:50:00,5.982
2023-11-06,20:00:00,5.974
2023-11-06,20:10:00,5.966
2023-11-06,20:20:00,5.962
2023-11-06,20:30:00,5.982
2023-11-06,20:40:00,5.971
2023-11-06,20:50:00,5.966
2023-11-06,21:00:00,5.976
2023-11-06,21:10:00,5.966
2023-11-06,21:20:00,5.973
2023-11-06,21:30:00,5.975
2023-11-06,21:40:00,5.975
2023-11-06,21:50:00,5.958
2023-11-06,22:00:00,5.976
2023-11-06,22:10:00,5.993
2023-11-06,22:20:00,5.988
2023-11-06,22:30:00,5.976
2023-11-06,22:40:00,5.978
2023-11-06,22:50:00,5.987
2023-11-06,23:00:00,5.982
2023-11-06,23:10:00,5.986
2023-11-06,23:20:00,5.986
2023-11-06,23:30:00,5.988
2023-11-06,23:40:00,5.984
2023-11-06,23:50:00,5.976
2023-11-07,00:00:00,5.952
2023-11-07,00:10:00,5.979
2023-11-07,00:20:00,5.98
2023-11-07,00:30:00,5.968
2023-11-07,00:40:00,5.974
2023-11-07,00:50:00,5.98
2023-11-07,01:00:00,5.971
2023-11-07,01:10:00,5.972
2023-11-07,01:20:00,5.968
2023-11-07,01:30:00,5.972
2023-11-07,01:40:00,5.969
2023-11-07,01:50:00,5.972
2023-11-07,02:00:00,5.972
2023-11-07,02:10:00,5.965
2023-11-07,02:20:00,5.959
2023-11-07,02:30:00,5.969
2023-11-07,02:40:00,5.966
2023-11-07,02:50:00,5.958
2023-11-07,03:00:00,5.962
2023-11-07,03:10:00,5.965
2023-11-07,03:20:00,5.966
2023-11-07,03:30:00,5.95
2023-11-07,03:40:00,5.965
2023-11-07,03:50:00,5.957
2023-11-07,04:00:00,5.959
2023-11-07,04:10:00,5.95
2023-11-07,04:20:00,5.953
2023-11-07,04:30:00,5.948
2023-11-07,04:40:00,5.957
2023-11-07,04:50:00,5.948
2023-11-07,05:00:00,5.944
2023-11-07,05:10:00,5.948
2023-11-07,05:20:00,5.945
2023-11-07,05:30:00,5.945
2023-11-07,05:40:00,5.948
2023-11-07,05:50:00,5.938
2023-11-07,06:00:00,5.95
2023-11-07,06:10:00,5.933
2023-11-07,06:20:00,5.934
2023-11-07,06:30:00,5.94
2023-11-07,06:40:00,5.938
2023-11-07,06:50:00,5.925
2023-11-07,07:00:00,5.934
2023-11-07,07:10:00,5.93
2023-11-07,07:20:00,5.937
2023-11-07,07:30:00,5.925
2023-11-07,07:40:00,5.928
2023-11-07,07:50:00,5.928
2023-11-07,08:00:00,5.91
2023-11-07,08:10:00,5.918
2023-11-07,08:20:00,5.924
2023-11-07,08:30:00,5.92
2023-11-07,08:40:00,5.926
2023-11-07,08:50:00,5.918
2023-11-07,09:00:00,5.914
2023-11-07,09:10:00,5.912
2023-11-07,09:20:00,5.898
2023-11-07,09:30:00,5.901
2023-11-07,09:40:00,5.903
2023-11-07,09:50:00,5.914
2023-11-07,10:00:00,5.9
2023-11-07,10:10:00,5.897